Regional Weather Roundup
Issued by NWS

Home | Current Version | Previous Version | Text Only | Print | Product List | Glossary On
Versions: 1 2 3 4 5 6 7 8 9 10 11 12 13 14 15 16 17 18 19 20 21 22 23 24 25 26 27 28 29 30 31 32 33 34 35 36 37 38 39 40 41 42 43 44 45 46 47 48 49 50
000
ASUS44 KLUB 252210
RWRTX
WEST TEXAS WEATHER ROUNDUP
NATIONAL WEATHER SERVICE LUBBOCK TX
500 PM CDT FRI JUL 25 2014

NOTE: "FAIR" INDICATES FEW OR NO CLOUDS BELOW 12,000 FEET WITH NO
SIGNIFICANT WEATHER AND/OR OBSTRUCTIONS TO VISIBILITY.

TXZ004-006>008-010-012-014-016-OKZ002-252300-
TEXAS PANHANDLE/OKLAHOMA PANHANDLE

CITY           SKY/WX    TMP DP  RH WIND       PRES   REMARKS
AMARILLO       SUNNY     99  53  21 S16       29.99F HX  96
BORGER         SUNNY    103  53  19 S13G24    29.92F HX 101
CANADIAN       SUNNY    103  58  22 S22G32    29.88S HX 103
DALHART        SUNNY    104  42  12 SW17G25   29.96F HX  99
DUMAS          SUNNY    102  48  16 S13G20    29.95F HX  98
GUYMON         MOSUNNY  106  51  16 S13G25    29.86F HX 103
HEREFORD       SUNNY    100  52  20 S13G20    30.01F HX  97
PAMPA          SUNNY    100  52  19 S20G26    29.96F HX  97
PERRYTON       SUNNY    106  49  15 S22G29    29.88F HX 103
$$

TXZ026-029-035-045-048-252300-
SOUTHERN PANHANDLE/SOUTH PLAINS/ROLLING PLAINS

CITY           SKY/WX    TMP DP  RH WIND       PRES   REMARKS
CHILDRESS      SUNNY    102  52  18 S16G25    29.92F HX  99
SEMINOLE       SUNNY     99  43  14 S3        30.03F
LUBBOCK        MOSUNNY   98  49  18 S9G22     30.01F HX  95
PLAINVIEW      SUNNY     95  56  26 S10G18    30.00F
SNYDER         SUNNY     99  53  21 S10G21    29.98F HX  96
$$

TXZ052-054-060>062-072-078-127-140-154-169-252300-
PERMIAN BASIN/CONCHO VALLEY/BIG COUNTRY/EDWARDS PLATEAU

CITY           SKY/WX    TMP DP  RH WIND       PRES   REMARKS
ABILENE        SUNNY     96  61  31 S12       29.97F HX  96
BIG SPRING     SUNNY    100  47  17 S8G21     30.00F HX  96
BRADY          MOSUNNY   95  63  34 E7        29.98F HX  96
BROWNWOOD      MOSUNNY   95  64  36 SE7G17    29.96F HX  97
JUNCTION       MOSUNNY   94  62  34 SE8       29.96F
MIDLAND        SUNNY     98  53  22 S10       30.00F HX  96
ODESSA         SUNNY     96  49  20 VRB3      30.01F
SAN ANGELO     PTSUNNY   98  58  26 S9        29.96F HX  97
SONORA         MOSUNNY   95  61  31 VRB7G15   30.02F HX  95
SWEETWATER     SUNNY    100  49  17 SE8G18    30.00F HX  97
WINK           SUNNY    100  46  16 SE13      29.96F HX  96
$$

TXZ055-058-074-075-080-082-252300-
FAR WEST/SOUTHWEST MOUNTAINS/TRANS PECOS

CITY           SKY/WX    TMP DP  RH WIND       PRES   REMARKS
ALPINE         SUNNY     91  47  21 CALM      30.15F
DRYDEN           N/A    101  59  24 E14       29.95F HX 101
EL PASO        MOSUNNY   98  44  15 E7        30.02F
FORT STOCKTON  SUNNY     97  50  20 SE13      30.00F
GUADALUPE PASS SUNNY     91  47  21 NE15      30.18F
MARFA          SUNNY     91  45  19 SE12      30.15F
PECOS          SUNNY    101  47  16 E15       29.95F HX  97
PRESIDIO       MOCLDY    97  54  23 S3G12     29.96F
$$

TXZ014-016-019-021>030-083-252300
TEXAS TECH WEST TEXAS MESONET/TEXAS PANHANDLE/NORTHERN SOUTH PLAINS

CITY           SKY/WX    TMP DP  RH WIND       PRES   REMARKS
ABERNATHY 5ENE   N/A     98  47  17 S10       30.02F HX  95
AMARILLO 9NNE    N/A     98  58  26 S14       29.95F HX  96
AMARILLO 7SSE    N/A     99  57  24 S14       30.00F HX  98
AMHERST 1NE      N/A     98  50  20 S10       30.02F
BOOTLEG 11WNW    N/A     98  49  19 S13       30.05  HX  95
CANADIAN 6E      N/A    100  61  27 S20       29.87F HX 101
CAPROCK CYN SP   N/A     97  50  20 S17       29.96F
CHILDRESS 2NNE   N/A    101  53  20 S16       29.91F HX  98
CLARENDON 2WSW   N/A     97  56  25 S15G24    29.96S HX  96
CLAUDE 12SW      N/A     98  58  26 S8        29.99F HX  97
DIMMITT 2NE      N/A     96  56  26 SE16      30.02F
FLOYDADA 2NNE    N/A     95  50  21 S12       30.02S
FRIONA 2NE       N/A     99  45  16 S13       30.03F HX  95
GOODLETT 3W      N/A    102  54  20 S14       29.89F HX 100
HART 3N          N/A     94  58  29 SE10      30.03F
HEREFORD 2NW     N/A     97  48  18 S10G20    30.01F
MCLEAN 1E        N/A     96  56  25 S21       29.94F HX  95
MEMPHIS 1NE      N/A    101  53  19 S10       29.91F HX  99
MULESHOE 2SSW    N/A     99  46  16 SW10      30.02F HX  95
OLTON 6S         N/A     95  52  23 S12       30.02S
PALO DURO SP     N/A     98  57  25 S16       30.00S HX  97
PAMPA 2E         N/A     97  55  24 S17       29.96F HX  95
PLAINVIEW 1S     N/A     97  53  23 S12G22    30.00F
SILVERTON 7ESE   N/A     95  54  25 S15       30.00F
TULIA 2ENE       N/A     96  55  25 S14       30.01F
TURKEY 2WSW      N/A     99  52  21 S13       29.94F HX  96
UMBARGER 3NNE    N/A     97  57  26 S13       30.01F HX  96
$$

TXZ033>036-039>041-045>048-252300
TEXAS TECH WEST TEXAS MESONET/SOUTH PLAINS

CITY           SKY/WX    TMP DP  RH WIND       PRES   REMARKS
AIKEN 3WSW       N/A     94  60  32 S12       30.02F
ANTON 6SSW       N/A     98  50  19 S9        30.02F HX  95
BROWNFIELD 2S    N/A     98  42  14 S8        30.02F
DENVR CTY 7WNW   N/A     97  42  15 S7        30.03F
GAIL 2ESE        N/A    100  49  17 S9        29.97F HX  97
LAMESA 2SE       N/A     98  45  16 SE13      30.02F
LEVELLAND 4S     N/A     97  46  17 SE8       30.02F
LUBBOCK 3WNW     N/A    100  47  17 SE8       30.01F HX  96
MORTON 1ENE      N/A     99  46  16 S7        30.03S HX  95
ODONNELL 1N      N/A     97  43  15 S7        30.02F
PLAINS 3N        N/A     98  48  18 SE5G16    30.04F
RALLS 1SE        N/A     97  51  21 S10       30.01F
REESE CENTER     N/A     98  43  15 S6G15     30.02F
SEAGRAVES 1SW    N/A     99  41  14 S12       30.02F
SEMINOLE 2NNE    N/A     99  41  13 SE10G28   30.02F
SLATON 2NE       N/A     97  41  14 S6        30.01F
SNYDER 3E        N/A    101  49  17 S10       29.97F HX  97
SUNDOWN 8SW      N/A     99  48  18 S8        30.03F HX  95
TAHOKA 3NNE      N/A    100  43  14 S12       30.01F HX  95
WOLFFORTH 6SSW   N/A     98  46  17 S6        30.02F
$$

TXZ031-032-036>038-042>044-252300-
TEXAS TECH WEST TEXAS MESONET/ROLLING PLAINS

CITY           SKY/WX    TMP DP  RH WIND       PRES   REMARKS
ASPERMONT 3NE    N/A    103  52  18 SE7       29.92F HX 100
FLUVANNA 3WNW    N/A     98  46  17 S10       29.99F
GRAHAM 5SSW      N/A     98  41  14 SE8G17    29.99F
GUTHRIE 10WSW    N/A    100  53  20 S10       29.93F HX  98
HASKELL 1NW      N/A     99  53  21 S8        29.92F HX  96
JAYTON 1SSE      N/A    102  48  16 SE12      29.93F HX  98
KNOX CITY 3NW    N/A    102  49  16 S14       29.91F HX  99
LK A HENRY 1NW   N/A    101  48  16 S10       29.95F HX  98
NORTHFIELD 1S    N/A    101  46  15 S16       29.92F HX  98
ODELL 4ENE       N/A    101  54  21 S17       29.90F HX  98
PADUCAH 10SW     N/A    100  53  20 S15       29.93F HX  97
POST 1NE         N/A    100  44  14 S14       29.97F HX  96
RRING SPRGS 3N   N/A     99  50  19 S12       29.97F HX  96
SEYMOUR 3NW      N/A    103  51  17 S12       29.90F HX 100
SPUR 1W          N/A    100  44  15 SW13      29.95F HX  96
WEINERT 2NNE     N/A    102  56  21 S12       29.92F HX 100
WHITE RVR 6NE    N/A    100  47  16 S12       29.97F HX  96
$$

TXZ052-054-060>062-072-078-127-140-154-169-252300-
TEXAS TECH WEST TEXAS MESONET/PERMIAN BASIN/
CONCHO VALLEY/BIG COUNTRY/EDWARDS PLATEAU

CITY           SKY/WX    TMP DP  RH WIND       PRES   REMARKS
COYANOSA 2N      N/A    101  48  16 SE5       29.96F HX  97
JUNCTION 1SSW    N/A     97  63  32 E2        29.96F HX  98
MERTZON 3NNE     N/A     98  60  28 SE9       29.98F HX  98
SAN ANGELO 7NW   N/A     97  55  24 SE7       29.96F HX  95
STRLNG CT 4WSW   N/A     98  56  24 S8        29.99F HX  96
ST LAWRNCE 5SW   N/A     94  52  23 SE7       30.00F
SWEETWATR 11SW   N/A     98  55  24 SE8       29.99F HX  96
WALL 1E          N/A     97  58  27 E7        29.96F HX  96
$$

TXZ055-058-074-075-080-082-252300-
TEXAS TECH WEST TEXAS MESONET/FAR WEST/SOUTHWEST MOUNTAINS/TRANS PECOS

CITY           SKY/WX    TMP DP  RH WIND       PRES   REMARKS
GUADLPE MTN NP   N/A     86  46  25 N3        30.20F
$$



USA.gov is the U.S. government's official web portal to all federal, state and local government web resources and services.